• In Hungary
  • List of Countries
  • For 7 days
  • Water Temperature
  • Satellite Maps
  • Weather Map
  • News
  • Weather Widgets
  • user-avatar
    Login

    Hourly Weather Salem

    Today, 19 February, Monday

    Time Temperature Precipitation Wind Pressure Humidity
    00:00 -2°C° 0.1 mm 2 mps 756 mmHg 91%
    01:00 -3°C° 0.1 mm 2 mps 757 mmHg 91%
    02:00 -3°C° 0 mm 2 mps 758 mmHg 90%
    03:00 -3°C° 0 mm 2 mps 758 mmHg 90%
    04:00 -2°C° 0 mm 1 mps 759 mmHg 89%
    05:00 -2°C° 0 mm 1 mps 760 mmHg 89%
    06:00 -3°C° 0 mm 1 mps 760 mmHg 89%
    07:00 -3°C° 0 mm 1 mps 761 mmHg 89%
    08:00 -1°C° 0 mm 1 mps 761 mmHg 81%
    09:00 0°C° 0 mm 1 mps 762 mmHg 73%
    10:00 +2°C° 0 mm 1 mps 762 mmHg 65%
    11:00 +3°C° 0 mm 1 mps 762 mmHg 62%
    12:00 +4°C° 0 mm 1 mps 762 mmHg 60%
    13:00 +5°C° 0 mm 1 mps 762 mmHg 57%
    14:00 +5°C° 0 mm 1 mps 762 mmHg 58%
    15:00 +5°C° 0 mm 1 mps 762 mmHg 59%
    16:00 +5°C° 0 mm 1 mps 762 mmHg 59%
    17:00 +3°C° 0 mm 1 mps 762 mmHg 66%
    18:00 +1°C° 0 mm 1 mps 763 mmHg 72%
    19:00 0°C° 0 mm 1 mps 763 mmHg 78%
    20:00 -1°C° 0 mm 1 mps 763 mmHg 79%
    21:00 -1°C° 0 mm 1 mps 764 mmHg 80%
    22:00 -1°C° 0 mm 1 mps 764 mmHg 81%
    23:00 -2°C° 0 mm 1 mps 764 mmHg 82%

    Tomorrow, 20 February, Tuesday

    Time Temperature Precipitation Wind Pressure Humidity
    00:00 -2°C° 0 mm 1 mps 764 mmHg 83%
    01:00 -2°C° 0 mm 1 mps 765 mmHg 83%
    02:00 -2°C° 0 mm 1 mps 764 mmHg 84%
    03:00 -2°C° 0 mm 1 mps 764 mmHg 85%
    04:00 -2°C° 0 mm 1 mps 764 mmHg 86%
    05:00 -3°C° 0 mm 1 mps 764 mmHg 86%
    06:00 -3°C° 0 mm 1 mps 764 mmHg 86%
    07:00 -3°C° 0 mm 1 mps 764 mmHg 86%
    08:00 -1°C° 0 mm 1 mps 764 mmHg 79%
    09:00 +1°C° 0 mm 1 mps 764 mmHg 72%
    10:00 +2°C° 0 mm 2 mps 764 mmHg 65%
    11:00 +3°C° 0 mm 2 mps 764 mmHg 64%
    12:00 +4°C° 0 mm 2 mps 763 mmHg 62%
    13:00 +5°C° 0 mm 2 mps 763 mmHg 60%
    14:00 +5°C° 0 mm 2 mps 762 mmHg 61%
    15:00 +6°C° 0 mm 1 mps 762 mmHg 62%
    16:00 +6°C° 0 mm 1 mps 762 mmHg 63%
    17:00 +5°C° 0.1 mm 1 mps 762 mmHg 68%
    18:00 +4°C° 0.1 mm 1 mps 763 mmHg 73%
    19:00 +3°C° 0.1 mm 1 mps 763 mmHg 78%
    20:00 +3°C° 0.1 mm 1 mps 763 mmHg 79%
    21:00 +3°C° 0.1 mm 1 mps 764 mmHg 81%
    22:00 +2°C° 0.1 mm 1 mps 764 mmHg 82%
    23:00 +2°C° 0.1 mm 1 mps 764 mmHg 84%

    Day after tomorrow, 21 February, Wednesday

    Time Temperature Precipitation Wind Pressure Humidity
    00:00 +2°C° 0.1 mm 1 mps 765 mmHg 85%
    01:00 +2°C° 0.1 mm 1 mps 765 mmHg 86%
    02:00 +1°C° 0 mm 1 mps 765 mmHg 87%
    03:00 0°C° 0 mm 1 mps 765 mmHg 89%
    04:00 0°C° 0 mm 1 mps 765 mmHg 90%
    05:00 -1°C° 0 mm 1 mps 766 mmHg 90%
    06:00 -2°C° 0 mm 1 mps 766 mmHg 90%
    07:00 -2°C° 0 mm 1 mps 766 mmHg 90%
    08:00 -3°C° 0 mm 2 mps 766 mmHg 81%
    09:00 -1°C° 0 mm 2 mps 767 mmHg 72%
    10:00 +2°C° 0 mm 2 mps 767 mmHg 63%
    11:00 +3°C° 0 mm 2 mps 766 mmHg 61%
    12:00 +4°C° 0 mm 2 mps 766 mmHg 59%
    13:00 +5°C° 0 mm 2 mps 766 mmHg 57%
    14:00 +5°C° 0 mm 2 mps 766 mmHg 58%
    15:00 +5°C° 0 mm 2 mps 765 mmHg 59%
    16:00 +4°C° 0 mm 2 mps 765 mmHg 60%
    17:00 +3°C° 0 mm 2 mps 766 mmHg 65%
    18:00 +3°C° 0 mm 1 mps 766 mmHg 69%
    19:00 +1°C° 0 mm 1 mps 766 mmHg 73%
    20:00 +1°C° 0 mm 1 mps 766 mmHg 74%
    21:00 0°C° 0 mm 1 mps 766 mmHg 75%
    22:00 0°C° 0 mm 1 mps 767 mmHg 76%
    23:00 -1°C° 0 mm 1 mps 767 mmHg 78%

    22 February, Thursday

    Time Temperature Precipitation Wind Pressure Humidity
    00:00 -1°C° 0 mm 1 mps 767 mmHg 79%
    01:00 -2°C° 0 mm 1 mps 767 mmHg 80%
    02:00 -2°C° 0 mm 1 mps 767 mmHg 81%
    03:00 -2°C° 0 mm 1 mps 767 mmHg 81%
    04:00 -3°C° 0 mm 1 mps 767 mmHg 82%
    05:00 -3°C° 0 mm 1 mps 767 mmHg 82%
    06:00 -3°C° 0 mm 1 mps 768 mmHg 81%
    07:00 -4°C° 0 mm 1 mps 768 mmHg 81%
    08:00 -1°C° 0 mm 1 mps 768 mmHg 72%
    09:00 +1°C° 0 mm 1 mps 768 mmHg 63%
    10:00 +3°C° 0 mm 1 mps 768 mmHg 54%
    11:00 +4°C° 0 mm 1 mps 768 mmHg 51%
    12:00 +5°C° 0 mm 1 mps 768 mmHg 49%
    13:00 +5°C° 0 mm 2 mps 767 mmHg 47%
    14:00 +5°C° 0 mm 2 mps 767 mmHg 48%
    15:00 +5°C° 0 mm 2 mps 767 mmHg 50%
    16:00 +5°C° 0 mm 2 mps 767 mmHg 51%
    17:00 +4°C° 0 mm 1 mps 767 mmHg 58%
    18:00 +2°C° 0 mm 1 mps 768 mmHg 65%
    19:00 0°C° 0 mm 1 mps 768 mmHg 73%
    20:00 -1°C° 0 mm 1 mps 769 mmHg 74%
    21:00 -1°C° 0 mm 1 mps 769 mmHg 75%
    22:00 -2°C° 0 mm 0 mps 769 mmHg 77%
    23:00 -2°C° 0 mm 1 mps 769 mmHg 77%

    23 February, Friday

    Time Temperature Precipitation Wind Pressure Humidity
    00:00 -2°C° 0 mm 1 mps 769 mmHg 77%
    01:00 -2°C° 0 mm 1 mps 769 mmHg 77%
    02:00 -2°C° 0 mm 1 mps 769 mmHg 77%
    03:00 -2°C° 0 mm 1 mps 769 mmHg 77%
    04:00 -2°C° 0 mm 1 mps 769 mmHg 77%
    05:00 -3°C° 0 mm 1 mps 769 mmHg 77%
    06:00 -3°C° 0 mm 1 mps 768 mmHg 78%
    07:00 -3°C° 0 mm 1 mps 768 mmHg 78%
    08:00 0°C° 0 mm 1 mps 768 mmHg 71%
    09:00 +1°C° 0 mm 2 mps 767 mmHg 65%
    10:00 +3°C° 0 mm 2 mps 767 mmHg 58%
    11:00 +4°C° 0 mm 2 mps 766 mmHg 59%
    12:00 +5°C° 0 mm 2 mps 766 mmHg 60%
    13:00 +6°C° 0 mm 2 mps 765 mmHg 61%
    14:00 +6°C° 0.1 mm 2 mps 764 mmHg 66%
    15:00 +6°C° 0.1 mm 2 mps 764 mmHg 71%
    16:00 +5°C° 0.1 mm 2 mps 763 mmHg 77%
    17:00 +4°C° 0.3 mm 3 mps 763 mmHg 80%
    18:00 +3°C° 0.3 mm 3 mps 762 mmHg 84%
    19:00 +3°C° 0.3 mm 3 mps 762 mmHg 87%
    20:00 +3°C° 0.7 mm 4 mps 762 mmHg 88%
    21:00 +3°C° 0.7 mm 4 mps 761 mmHg 89%
    22:00 +3°C° 0.7 mm 5 mps 760 mmHg 91%
    23:00 +3°C° 0.9 mm 5 mps 760 mmHg 91%

    24 February, Saturday

    Time Temperature Precipitation Wind Pressure Humidity
    00:00 +3°C° 0.9 mm 5 mps 759 mmHg 92%
    01:00 +3°C° 0.9 mm 6 mps 758 mmHg 92%
    02:00 +3°C° 0.7 mm 6 mps 758 mmHg 92%
    03:00 +3°C° 0.7 mm 6 mps 757 mmHg 92%
    04:00 +3°C° 0.7 mm 6 mps 756 mmHg 92%
    05:00 +3°C° 0.8 mm 5 mps 756 mmHg 92%
    06:00 +3°C° 0.8 mm 5 mps 756 mmHg 92%
    07:00 +3°C° 0.8 mm 5 mps 755 mmHg 92%
    08:00 +2°C° 0.6 mm 5 mps 755 mmHg 90%
    09:00 +2°C° 0.6 mm 5 mps 755 mmHg 88%
    10:00 +2°C° 0.6 mm 5 mps 755 mmHg 87%
    11:00 +2°C° 0.6 mm 5 mps 755 mmHg 86%
    12:00 +2°C° 0.6 mm 6 mps 756 mmHg 85%
    13:00 +2°C° 0.6 mm 6 mps 756 mmHg 84%
    14:00 +2°C° 0.4 mm 5 mps 756 mmHg 82%
    15:00 +2°C° 0.4 mm 5 mps 756 mmHg 81%
    16:00 +2°C° 0.4 mm 5 mps 756 mmHg 79%
    17:00 +3°C° 0.6 mm 4 mps 756 mmHg 83%
    18:00 +1°C° 0.6 mm 4 mps 756 mmHg 88%
    19:00 +1°C° 0.6 mm 3 mps 757 mmHg 92%
    20:00 +1°C° 0.5 mm 3 mps 757 mmHg 92%
    21:00 +1°C° 0.5 mm 3 mps 757 mmHg 91%
    22:00 0°C° 0.5 mm 4 mps 757 mmHg 91%
    23:00 0°C° 0.4 mm 4 mps 757 mmHg 92%
    Show more